Manchester, NH

4:51 AM EDT on April 28, 2017 (GMT -0400)
Manchester

Weather History for KMHT - June, 2013

Change the Weather History Date:

Monday, June 17, 2013

  Actual Average Record
Temperature  
Mean Temperature 72 °F 68 °F  
Max Temperature 84 °F 78 °F 94 °F (1981)
Min Temperature 61 °F 57 °F 37 °F (1954)
Degree Days  
Heating Degree Days 0 1  
Month to date heating degree days 49  
Since 1 June heating degree days 49  
Since 1 July heating degree days 6383  
Cooling Degree Days 8 4  
Month to date cooling degree days 53  
Year to date cooling degree days 83  
Since 1 June cooling degree days 53  
Growing Degree Days 22 (Base 50)    
Moisture  
Dew Point 58 °F    
Average Humidity 69    
Maximum Humidity 90    
Minimum Humidity 38    
Precipitation  
Precipitation 0.09 in 0.12 in 2.64 in (2001)
Month to date precipitation 2.32  
Year to date precipitation 20.36  
Snow  
Snow 0.00 in - - ()
Month to date snowfall  
Since 1 July snowfall  
Snow Depth -    
Sea Level Pressure  
Sea Level Pressure 29.85 in    
Wind  
Wind Speed 5 mph (SW)    
Max Wind Speed 21 mph    
Max Gust Speed 36 mph    
Visibility 10 miles    
Events Rain    
T = Trace of Precipitation, MM = Missing Value Source: NWS Daily Summary

Daily Weather History Graph

Daily Weather History Graph

Search for Another Location

Airport or City:

Trip Planner

Search our weather history database for the weather conditions in past years. The results will help you decide how hot, cold, wet, or windy it might be!

Date:

Astronomy

Jun. 17, 2013 Rise Set
Actual Time 5:06 AM EDT 8:27 PM EDT
Civil Twilight 4:31 AM EDT 9:02 PM EDT
Nautical Twilight 3:45 AM EDT 9:48 PM EDT
Astronomical Twilight 2:48 AM EDT 10:45 PM EDT
Moon 1:55 PM EDT (6/17) 12:49 AM EDT (6/17)
Length of Visible Light 16h 31m
Length of Day
15h 20m
First Quarter, 60% of the Moon is Illuminated
Jun 17
First Quarter
Jun 23
Full
Jun 30
Last Quarter
Jul 8
New
Jul 15
First Quarter

Hourly Weather History & Observations

Time (EDT) Temp. Heat Index Dew Point Humidity Pressure Visibility Wind Dir Wind Speed Gust Speed Precip Events Conditions
12:53 AM 66.9 °F - 57.9 °F 73% 29.80 in 10.0 mi West 4.6 mph - N/A   Clear
1:53 AM 64.9 °F - 57.9 °F 78% 29.81 in 10.0 mi Calm Calm - N/A   Clear
2:53 AM 64.0 °F - 57.0 °F 78% 29.82 in 10.0 mi Calm Calm - N/A   Clear
3:53 AM 64.0 °F - 57.0 °F 78% 29.82 in 10.0 mi Calm Calm - N/A   Clear
4:53 AM 61.0 °F - 55.9 °F 83% 29.83 in 10.0 mi South 3.5 mph - N/A   Clear
5:53 AM 62.1 °F - 55.9 °F 80% 29.85 in 10.0 mi South 3.5 mph - N/A   Clear
6:53 AM 64.0 °F - 57.0 °F 78% 29.84 in 10.0 mi South 4.6 mph - N/A   Clear
7:53 AM 69.1 °F - 59.0 °F 70% 29.86 in 10.0 mi SSW 3.5 mph - N/A   Clear
8:53 AM 73.9 °F - 59.0 °F 59% 29.86 in 10.0 mi WSW 5.8 mph - N/A   Clear
9:53 AM 77.0 °F - 57.0 °F 50% 29.85 in 10.0 mi WSW 11.5 mph 16.1 mph N/A   Partly Cloudy
10:53 AM 79.0 °F - 55.9 °F 45% 29.84 in 10.0 mi West 6.9 mph 20.7 mph N/A   Partly Cloudy
11:53 AM 82.0 °F 81.4 °F 55.0 °F 39% 29.83 in 10.0 mi West 11.5 mph 17.3 mph N/A   Partly Cloudy
12:53 PM 82.9 °F 82.0 °F 55.0 °F 38% 29.82 in 10.0 mi West 11.5 mph 19.6 mph N/A   Partly Cloudy
1:53 PM 81.0 °F 80.8 °F 55.9 °F 42% 29.81 in 10.0 mi Variable 6.9 mph - 0.00 in Rain Light Rain
2:53 PM 84.0 °F 83.3 °F 57.0 °F 40% 29.80 in 10.0 mi West 5.8 mph - 0.00 in   Scattered Clouds
3:53 PM 81.0 °F 80.8 °F 55.9 °F 42% 29.83 in 10.0 mi NNW 20.7 mph 26.5 mph 0.00 in Rain Light Rain
4:07 PM 71.6 °F - 53.6 °F 53% 29.82 in 10.0 mi NNW 18.4 mph 35.7 mph 0.00 in Rain Light Rain
4:53 PM 66.9 °F - 59.0 °F 76% 29.86 in 7.0 mi NW 10.4 mph - 0.03 in Rain Rain
5:53 PM 64.9 °F - 61.0 °F 87% 29.85 in 10.0 mi South 6.9 mph - 0.06 in   Mostly Cloudy
6:53 PM 66.0 °F - 60.1 °F 81% 29.85 in 10.0 mi South 4.6 mph - 0.00 in   Partly Cloudy
7:53 PM 66.0 °F - 62.1 °F 87% 29.88 in 10.0 mi South 5.8 mph - N/A   Partly Cloudy
8:53 PM 64.9 °F - 62.1 °F 90% 29.90 in 10.0 mi SSE 5.8 mph - N/A   Partly Cloudy
9:53 PM 64.0 °F - 61.0 °F 90% 29.93 in 10.0 mi Calm Calm - N/A   Partly Cloudy
10:53 PM 63.0 °F - 60.1 °F 90% 29.91 in 10.0 mi SSW 3.5 mph - N/A   Clear
11:53 PM 63.0 °F - 60.1 °F 90% 29.91 in 10.0 mi Calm Calm - N/A   Clear